Theta_e
301 301 302 302 301 303 306 307 308 308 307 307 307 306 306 306 306 302 297 299 300 290 291 294 296 292 292 290 286 292 293 292 288 290 290 283 283 288 287 289 288 286 285 283 283 284 283 296 295 289 291 294 295 294
300 300 302 301 301 305 306 307 307 307 307 306 306 306 306 306 306 304 296 300 300 294 288 293 295 296 296 295 293 292 293 293 292 292 289 291 286 287 285 281 292 286 288 285 286 287 294 297 295 297 297 296 296 294
299 299 301 301 305 305 306 307 307 307 306 306 306 306 306 306 306 302 296 295 293 291 290 289 290 296 300 299 299 291 293 299 295 295 290 292 287 288 283 283 287 292 294 289 289 293 294 296 297 299 299 298 298 296
299 300 300 303 305 305 305 306 306 306 306 306 306 306 306 305 305 303 298 296 294 289 287 287 294 293 298 299 300 301 298 298 298 295 289 285 286 291 285 288 287 290 293 290 287 292 295 297 298 299 300 299 297 296
299 300 299 303 304 304 305 305 305 305 306 305 305 305 306 305 304 301 298 296 295 292 280 280 290 293 296 297 299 299 299 296 294 292 285 285 289 289 284 286 283 292 291 286 286 294 294 295 297 300 300 299 299 297
300 299 300 302 303 304 304 304 304 305 305 305 305 305 304 303 303 300 292 295 296 293 284 276 284 289 293 295 295 295 298 296 295 292 290 294 296 289 281 281 290 295 296 295 293 297 298 297 297 297 297 298 299 299
299 299 302 302 303 303 303 303 303 303 304 304 304 304 303 302 298 292 289 293 297 293 283 276 277 286 292 294 292 292 295 294 292 291 290 290 292 294 287 285 291 294 295 295 296 294 292 295 294 297 298 299 299 297
299 299 301 301 302 302 302 302 303 303 303 303 303 303 302 302 300 294 295 299 296 289 285 276 276 280 288 288 287 290 286 290 292 289 286 286 287 290 285 289 292 294 295 295 295 296 295 295 294 295 295 296 294 294
300 299 300 301 301 301 301 301 302 302 303 303 303 302 300 297 292 294 300 298 293 287 276 276 277 275 290 288 285 288 288 284 287 280 283 286 282 283 288 289 291 292 292 294 296 297 294 293 293 292 291 293 292 292
300 299 300 301 301 301 301 302 302 303 303 302 298 290 286 293 302 300 294 289 285 283 282 277 281 282 285 284 283 283 288 285 282 283 286 281 284 290 289 291 292 293 294 295 293 292 290 288 290 290 290 292 293 293
300 300 300 301 301 301 301 301 301 301 299 290 285 285 294 300 292 287 284 281 282 280 284 283 281 283 286 283 284 288 285 285 280 279 281 279 280 283 290 291 293 293 295 295 294 292 292 292 291 290 290 290 291 291
301 301 301 301 301 301 301 300 300 295 291 290 291 295 293 289 284 280 277 281 281 277 281 283 283 282 283 287 284 287 283 284 279 282 280 276 282 288 289 290 291 292 292 292 292 292 293 293 292 292 290 289 289 291
300 300 301 301 301 301 300 300 299 298 298 293 289 285 284 283 278 276 272 276 278 278 282 284 279 283 284 285 283 285 282 279 283 273 278 280 284 288 290 291 291 292 291 291 292 292 292 291 292 290 290 290 289 288
300 300 301 301 301 300 300 299 299 298 292 286 283 278 279 276 279 279 279 278 280 281 284 285 282 282 283 281 284 281 282 281 273 275 276 279 287 290 291 291 291 290 290 289 289 290 290 289 289 289 286 285 283 284
299 300 300 300 300 300 299 299 299 295 289 284 283 277 277 280 280 280 282 281 283 287 287 283 282 283 280 281 283 283 280 276 279 277 280 285 288 289 289 289 289 289 287 287 288 288 284 281 284 283 278 284 284 277
300 299 298 300 300 299 299 299 296 293 288 284 283 280 280 279 278 279 281 281 287 288 288 284 279 277 279 281 281 279 279 277 279 282 285 287 288 288 289 290 290 290 290 289 288 288 287 283 280 284 280 280 273 276
299 293 299 299 300 299 299 294 289 285 285 284 281 280 278 279 280 280 282 283 290 288 281 280 278 277 281 278 279 280 277 278 283 285 286 287 288 289 290 289 288 288 289 289 287 286 285 283 281 281 281 278 279 277
293 297 299 300 299 297 291 289 286 285 281 283 280 280 280 278 278 279 282 289 288 285 283 281 283 280 276 279 278 281 282 284 285 286 286 287 287 288 288 288 288 288 288 287 286 284 283 281 281 280 279 278 277 277
296 298 299 299 296 287 285 285 287 281 282 283 281 281 281 280 283 285 285 288 288 289 285 282 280 280 282 282 282 282 283 285 286 286 284 287 288 287 287 288 288 287 287 286 284 283 281 281 281 279 278 278 276 277
299 299 299 297 295 287 284 284 288 285 281 283 284 281 281 282 284 284 286 287 288 287 283 283 283 283 283 285 285 286 286 286 284 282 283 284 284 286 287 287 287 286 285 283 282 279 279 278 278 278 277 277 277 277
297 297 298 296 293 290 287 284 284 284 286 282 284 284 281 284 282 281 283 287 282 281 283 286 287 285 287 285 287 287 286 287 285 285 285 285 287 285 285 285 285 283 282 281 280 280 278 279 278 278 275 271 273 277
294 297 294 293 287 287 286 289 284 286 285 282 282 283 280 280 279 282 283 282 284 285 284 284 284 285 286 287 287 290 290 290 288 286 283 283 287 285 284 284 283 280 281 280 280 280 279 279 278 277 273 270 273 274
295 293 289 286 284 284 284 289 283 285 281 283 282 282 281 282 283 288 281 282 284 286 289 289 290 291 291 291 292 291 291 290 287 287 288 287 287 286 284 284 283 281 279 278 279 279 277 276 274 273 273 273 273 270
294 287 285 284 284 282 286 283 284 284 285 282 280 279 281 281 284 283 281 281 283 286 288 288 289 288 288 289 289 291 292 291 290 288 287 286 285 285 284 284 283 283 282 280 280 277 275 274 273 274 272 271 271 273
284 283 284 280 284 281 280 279 282 282 280 280 279 280 282 285 282 280 280 282 284 286 287 288 288 288 288 289 288 289 289 289 289 289 289 287 284 284 283 283 283 283 282 277 274 273 271 273 274 274 274 274 275 275
280 281 282 281 281 278 280 279 279 276 278 274 279 283 283 282 279 277 281 285 284 283 284 286 287 286 286 289 289 288 289 288 288 288 288 287 286 285 284 280 278 280 282 279 277 275 275 276 276 274 275 275 276 276
277 279 283 284 282 282 278 278 281 279 275 278 281 280 277 275 274 279 281 284 283 281 282 283 284 287 289 288 287 286 287 288 289 289 288 286 286 286 285 283 281 282 281 281 280 279 278 277 276 277 278 277 276 275
279 282 279 281 278 282 275 274 273 273 278 281 280 273 275 275 277 281 283 284 283 284 283 283 283 283 285 286 284 282 279 279 280 281 282 281 278 275 276 277 277 280 281 281 280 279 279 279 279 278 276 275 269 266
281 282 281 271 274 277 276 275 277 279 281 283 277 274 277 279 280 280 280 281 283 284 283 283 281 279 279 280 280 279 279 283 284 280 281 279 277 281 274 275 277 277 277 277 277 280 280 280 280 278 277 273 271 268
281 282 276 269 269 273 278 281 279 278 280 280 279 279 278 276 273 277 278 280 281 283 284 283 282 282 283 284 283 283 283 283 283 286 285 285 285 282 281 280 279 276 277 278 277 276 276 275 275 271 272 269 269 267
280 277 274 274 276 278 279 275 277 278 277 274 272 271 271 273 278 279 279 279 280 284 283 281 282 275 272 272 273 275 281 281 283 281 280 281 282 281 281 280 277 278 278 277 277 277 275 271 273 271 271 270 269 268
276 269 270 268 271 277 275 275 277 279 279 275 272 272 272 271 270 271 277 280 280 281 282 282 281 281 280 273 275 276 278 279 281 281 282 282 281 281 281 279 278 277 277 277 277 276 274 272 271 271 270 267 266 267
272 269 269 269 271 271 274 273 272 272 271 275 275 276 276 277 277 270 275 273 278 280 279 280 280 282 280 280 280 280 279 280 282 283 283 283 283 283 283 281 278 277 276 276 275 273 271 270 268 267 267 267 266 264
Wind_Speed
15 17 21 24 22 26 33 34 34 34 34 34 34 33 33 31 18 6 1 3 5 4 2 4 3 4 3 2 6 5 5 3 3 5 6 4 4 7 5 6 7 8 7 4 2 4 13 5 4 6 8 3 6 6
14 17 23 22 30 30 25 37 36 35 34 34 34 33 33 30 20 9 4 3 4 5 4 1 2 2 2 2 4 3 3 1 3 4 1 3 2 2 4 5 2 7 8 8 11 9 4 4 6 5 5 5 6 6
15 20 19 28 28 27 24 37 38 36 35 35 33 31 31 28 23 10 4 4 5 5 3 3 2 4 4 3 2 4 2 2 2 3 5 3 5 3 5 6 4 4 4 4 3 6 9 8 4 4 6 7 7 7
17 18 16 18 31 26 26 32 36 36 35 36 35 33 33 28 20 11 5 3 6 5 4 4 3 1 5 4 2 5 4 4 0 2 2 3 4 3 4 4 5 6 5 5 5 6 6 6 7 7 6 4 4 4
16 10 12 17 21 21 25 30 33 34 34 36 35 35 32 26 22 11 5 3 3 7 5 2 3 2 2 1 3 2 8 4 2 2 1 3 2 2 1 2 4 5 8 6 7 8 4 6 1 1 6 7 9 8
7 7 9 12 22 25 26 32 30 34 36 36 35 33 31 29 26 11 5 3 0 5 6 2 4 2 4 1 1 1 3 4 2 1 2 4 2 4 1 4 6 6 5 7 5 4 5 4 5 3 3 6 7 8
7 8 13 15 18 28 31 30 32 30 36 35 33 33 29 24 8 5 7 6 7 5 5 3 3 3 2 3 1 1 1 3 4 4 4 4 3 3 1 6 6 6 5 5 5 0 3 5 6 5 5 5 4 5
11 5 11 21 18 28 29 30 32 31 31 33 30 28 25 23 12 6 4 8 6 7 5 4 3 3 1 2 0 0 2 2 1 3 1 4 1 3 7 9 7 10 11 10 10 9 7 4 4 7 4 2 5 8
15 9 7 19 21 30 33 32 29 30 29 31 31 29 11 5 4 3 12 14 4 6 5 3 5 5 3 2 2 1 2 1 0 3 4 4 3 8 8 7 9 10 9 10 13 11 8 9 9 8 7 7 8 9
19 16 10 19 25 25 31 31 32 33 35 34 11 6 4 2 22 8 7 4 5 4 3 3 1 4 4 2 0 3 1 2 2 6 2 4 11 20 8 7 7 9 10 11 13 16 5 5 8 8 9 8 10 10
21 20 20 19 23 26 29 34 35 34 22 4 4 4 7 13 6 4 4 4 3 2 4 4 5 5 1 4 3 1 2 2 3 6 4 4 8 4 13 19 19 18 17 15 9 6 6 8 8 9 9 10 9 9
20 23 21 23 26 28 34 36 32 8 3 7 12 8 4 4 4 6 4 1 3 7 5 7 6 5 3 3 4 4 3 3 6 2 2 5 5 10 11 11 12 12 11 10 9 9 11 11 10 9 8 9 11 13
21 21 23 22 26 33 36 28 20 24 20 5 7 5 4 3 5 8 9 6 7 5 6 5 4 5 2 2 3 3 6 6 3 2 6 6 5 7 6 5 6 6 7 8 9 7 9 10 9 9 11 10 8 7
24 24 23 23 26 31 30 32 29 12 7 5 4 7 5 5 6 8 10 6 5 4 9 8 5 5 2 3 3 3 5 1 1 4 7 5 10 10 6 3 3 5 7 8 9 8 9 10 9 6 7 5 5 8
26 26 27 26 30 29 30 28 13 5 4 4 4 4 5 4 2 2 4 5 3 9 10 4 4 4 2 4 4 3 3 6 7 6 5 6 7 6 6 4 5 7 7 7 6 7 5 4 4 5 3 6 4 4
28 24 13 26 30 28 29 14 6 4 3 4 2 4 1 4 1 1 4 5 4 8 5 3 4 4 5 5 6 7 4 8 5 5 4 3 4 5 4 4 5 6 7 8 6 4 3 2 2 2 3 4 2 5
25 4 25 28 31 30 23 5 4 3 3 4 3 1 3 2 5 3 4 4 6 10 5 4 6 8 2 3 5 6 7 4 5 5 3 6 6 6 6 6 7 7 7 4 3 3 2 3 3 2 1 2 4 5
6 16 30 28 23 20 4 2 3 3 4 2 5 4 3 1 3 3 4 7 5 5 5 6 5 4 5 5 5 5 5 4 4 5 5 6 6 8 6 8 8 7 6 4 3 3 4 4 3 2 4 4 5 6
13 20 32 32 15 6 4 2 2 5 4 4 2 1 4 3 3 2 5 6 3 3 4 3 3 5 7 5 5 3 3 4 6 6 5 6 7 9 8 7 7 5 5 5 5 4 3 4 3 4 4 4 4 4
24 31 34 28 14 3 4 2 3 2 4 5 4 5 4 4 4 1 2 4 4 3 2 6 13 7 4 4 5 5 5 3 3 3 5 6 4 4 7 5 4 3 3 3 3 4 4 3 2 4 4 4 5 5
17 20 30 18 3 3 2 5 4 5 5 3 3 7 4 4 4 5 7 4 3 5 8 11 12 5 6 4 5 4 5 5 6 6 6 5 4 3 3 3 3 3 3 3 4 4 4 4 4 4 4 3 3 4
1 21 8 5 2 1 2 4 5 4 4 2 4 3 3 4 4 7 4 3 8 8 6 6 6 6 6 9 7 9 8 5 5 4 4 2 3 3 4 4 4 4 4 4 4 5 4 4 4 4 4 4 4 4
14 5 4 4 5 6 4 4 4 5 5 7 2 4 3 4 5 5 5 6 6 6 8 9 8 6 9 7 5 6 8 8 4 5 6 5 4 4 3 4 5 5 4 4 3 4 4 5 5 5 5 5 5 4
7 4 5 5 4 5 5 4 4 4 3 4 5 4 2 3 3 1 5 4 5 3 7 8 5 4 3 4 8 10 10 5 6 5 5 5 5 4 4 4 4 4 4 3 4 4 4 5 6 6 5 5 5 5
6 5 5 4 3 5 5 5 4 3 5 4 5 4 3 3 3 5 5 4 3 5 6 8 8 9 10 9 6 8 6 6 7 9 6 6 3 2 2 3 4 4 4 5 4 5 4 5 5 7 7 7 8 8
4 5 7 7 5 6 6 6 8 6 5 3 3 3 2 3 3 7 5 7 7 4 5 8 9 7 7 9 10 7 7 5 5 6 5 6 7 5 5 5 3 4 5 4 6 7 8 7 8 9 7 8 9 9
4 5 4 3 3 5 4 4 3 5 4 6 5 5 4 6 8 6 1 0 1 2 2 2 3 7 9 5 3 2 4 6 7 5 2 5 5 6 5 6 7 6 6 8 8 9 11 10 9 10 9 5 7 8
5 5 9 6 3 1 6 4 5 6 6 4 7 6 10 10 8 2 1 0 1 3 3 3 3 3 4 4 3 3 3 4 5 5 4 4 3 1 3 3 3 7 6 7 7 7 8 10 10 10 10 8 5 4
2 2 5 3 3 3 2 5 6 2 2 6 7 5 5 1 1 0 1 2 2 0 2 3 3 3 3 3 4 3 3 5 8 5 6 4 1 3 1 2 4 3 4 5 5 7 10 9 10 10 9 7 6 6
3 1 5 3 4 2 2 0 2 1 2 2 3 3 2 1 2 2 1 1 2 2 1 1 2 3 1 1 1 3 3 2 1 2 3 4 5 2 4 5 5 4 4 6 7 8 10 8 9 5 6 5 4 5
3 4 4 3 3 1 1 1 1 2 3 2 2 4 2 2 2 1 1 1 2 2 1 1 2 2 2 1 2 2 2 1 1 2 2 2 3 3 4 4 4 5 6 7 7 7 7 4 5 7 8 8 7 6
3 3 5 4 1 2 3 2 1 2 1 2 1 2 1 1 2 3 1 1 1 1 2 1 1 3 2 3 2 1 2 2 2 1 3 2 3 4 5 5 5 5 6 7 7 7 9 9 6 6 6 8 7 7
3 3 4 4 3 1 2 4 3 1 3 1 0 1 1 2 4 3 2 1 2 2 3 2 2 2 2 2 2 1 1 0 2 3 5 5 7 7 6 5 5 6 8 7 7 8 9 10 7 7 8 8 7 7
Wind_Direction
238 248 247 245 250 242 204 190 180 178 174 167 165 164 163 164 146 108 121 337 105 94 337 29 20 129 100 126 153 204 76 308 56 179 195 203 180 216 187 177 172 168 174 198 122 221 262 199 88 182 219 275 172 166
249 260 256 247 264 197 202 181 176 175 169 163 162 162 162 163 156 110 93 355 89 82 177 283 302 45 41 179 137 355 131 88 183 110 103 93 226 180 166 240 145 221 188 186 184 208 232 210 205 216 188 184 210 180
257 269 252 265 186 176 190 177 172 170 167 162 159 156 152 158 155 113 131 158 66 99 346 70 92 329 22 359 232 115 1 82 61 149 156 150 265 146 178 233 211 257 153 219 95 231 233 232 255 259 193 216 190 181
253 257 250 206 179 175 173 177 164 165 165 160 155 153 152 154 141 112 130 160 92 106 113 273 328 71 317 353 26 97 126 31 168 94 133 149 189 172 216 225 189 200 139 190 265 286 288 279 226 228 206 212 202 169
250 226 257 175 160 148 169 167 160 160 163 153 152 150 148 142 118 90 83 23 119 120 155 239 320 259 285 350 51 103 115 94 345 346 2 225 212 139 312 40 242 188 185 172 222 229 187 245 360 173 194 205 205 182
239 242 219 153 156 151 148 152 147 154 152 142 141 139 136 126 123 118 67 321 332 111 95 89 291 343 10 35 106 168 132 106 133 24 308 268 234 100 127 239 239 217 204 183 204 187 197 231 254 200 205 246 244 201
183 250 152 112 137 130 125 132 125 132 131 130 136 138 130 129 112 110 171 168 157 89 83 34 329 306 334 58 53 113 86 177 143 164 192 270 314 131 240 233 244 229 242 232 254 75 269 214 228 168 199 258 213 225
169 209 131 130 129 140 121 114 119 121 122 127 131 130 110 105 109 54 17 104 88 87 77 125 244 10 220 144 223 191 110 37 255 191 111 197 220 166 243 228 226 254 267 265 243 222 219 220 222 253 244 204 210 227
151 160 130 143 128 126 128 123 122 123 125 123 120 115 95 68 93 95 108 69 60 109 139 129 152 202 188 124 147 68 98 113 315 204 223 133 218 220 228 179 211 220 202 228 259 267 203 209 223 237 239 225 220 237
143 152 159 124 131 130 130 133 133 129 126 123 94 65 89 115 129 114 24 48 22 358 55 169 114 156 126 133 195 104 85 217 243 240 118 200 246 244 213 218 226 233 222 226 245 260 224 224 225 235 219 225 216 221
141 143 144 138 129 130 132 126 122 119 109 59 91 82 122 108 65 49 94 114 153 210 206 199 178 138 254 126 142 195 151 185 239 264 172 253 261 228 213 229 236 232 230 236 246 264 210 215 223 228 241 226 218 221
145 139 140 140 137 126 126 126 130 100 96 137 110 88 66 71 72 98 97 141 201 217 192 180 186 156 169 129 111 164 185 177 246 139 139 264 268 234 216 224 239 240 238 242 242 247 260 260 240 239 238 240 223 222
147 145 138 139 137 133 130 130 110 124 125 65 70 93 127 133 127 151 173 194 209 175 171 153 127 132 93 100 104 177 210 217 105 143 226 223 258 267 245 246 249 228 231 241 253 233 242 250 253 224 243 242 246 221
151 149 147 140 140 142 133 134 141 134 83 82 109 125 152 163 192 204 196 151 192 137 144 141 121 139 170 112 129 210 233 91 231 233 231 235 235 252 267 251 197 248 216 220 239 240 237 242 261 260 237 258 216 215
152 153 153 149 147 142 140 142 122 56 80 100 115 123 178 183 162 251 112 110 180 145 139 95 68 118 157 131 185 179 199 242 218 220 215 234 244 253 267 267 263 277 281 260 242 244 246 226 242 281 309 296 249 132
149 146 161 153 150 143 147 133 55 54 52 115 137 126 67 84 316 190 174 148 153 140 121 76 135 128 191 179 194 202 195 223 241 214 225 256 253 257 247 254 268 269 265 260 262 239 227 230 262 318 34 27 74 137
153 109 162 157 151 147 143 81 72 79 134 140 192 131 156 94 184 188 131 148 142 141 167 143 168 198 109 188 212 188 211 209 217 246 235 224 246 254 259 286 288 285 283 250 180 178 168 129 130 128 146 80 93 101
139 142 152 152 141 150 36 71 110 128 164 174 165 193 198 155 148 123 155 152 147 167 131 205 123 151 200 190 240 232 227 239 220 230 239 254 257 266 249 249 274 263 255 196 183 162 153 167 182 176 133 127 110 119
140 148 151 150 134 96 110 119 139 166 180 143 194 189 150 184 234 159 153 182 185 152 109 117 199 189 211 209 201 231 222 209 237 246 239 254 246 251 267 260 254 236 183 174 182 194 179 184 190 158 145 151 140 143
146 151 153 138 119 99 104 98 153 177 189 192 178 163 176 197 135 206 166 175 169 158 165 201 224 228 198 201 198 215 220 223 166 277 282 273 250 260 263 249 237 189 158 133 135 136 136 130 166 152 156 158 149 158
144 157 155 151 138 114 142 158 176 176 164 183 180 174 204 143 156 171 209 151 123 205 220 226 236 233 205 217 216 205 220 180 204 194 227 275 289 246 270 244 192 151 178 181 185 197 174 190 168 158 149 133 110 119
131 132 130 70 84 182 200 190 159 164 129 185 124 160 132 171 195 205 146 182 226 224 193 190 205 202 211 218 222 212 219 223 252 244 241 179 254 240 238 203 159 199 206 200 180 187 195 167 147 138 128 137 124 123
98 89 93 129 141 189 175 141 126 163 148 169 136 161 189 177 197 138 193 208 226 215 209 212 220 210 224 225 189 199 197 193 211 238 248 233 248 236 230 198 182 179 212 229 170 155 169 152 136 129 128 131 129 115
81 100 141 157 141 162 144 178 169 141 128 169 170 177 194 164 134 174 233 214 225 210 202 198 167 210 241 197 216 232 238 203 223 236 205 200 234 238 201 218 207 200 181 140 150 143 147 157 138 141 142 138 138 148
133 169 144 151 152 135 134 140 142 144 159 178 130 156 170 148 177 225 240 250 214 226 207 198 199 205 222 231 230 228 201 174 206 227 231 182 152 107 210 229 224 210 151 129 146 158 154 139 148 152 158 158 160 166
130 193 174 158 157 145 159 142 173 166 142 116 148 115 98 173 197 245 227 221 226 207 194 207 210 214 226 222 236 227 222 182 166 213 225 178 179 173 193 185 203 270 193 160 143 157 159 165 164 159 165 168 168 159
158 182 175 215 173 138 93 91 110 119 139 159 153 152 146 184 228 240 231 196 267 286 279 271 232 224 238 228 199 195 181 174 185 207 161 168 180 187 166 178 202 227 159 164 161 160 167 168 167 173 172 158 171 170
175 162 161 173 127 107 123 117 140 176 176 165 130 173 181 199 225 192 154 19 298 306 310 314 319 284 252 232 202 138 84 97 89 81 75 55 47 109 156 148 146 147 149 162 158 149 159 167 170 168 167 169 168 170
142 168 103 48 75 64 125 160 187 199 155 160 167 187 219 139 80 111 281 266 267 42 21 342 333 338 27 35 52 51 106 139 137 145 179 206 265 258 191 127 129 129 130 130 137 150 157 156 163 167 162 158 163 144
170 159 93 78 90 136 175 248 170 189 84 106 101 77 63 343 272 260 297 349 26 335 342 342 321 341 354 14 92 66 32 44 19 143 173 193 211 126 149 150 140 126 116 118 112 101 90 94 100 80 106 107 122 128
111 82 91 100 130 156 191 229 108 84 54 70 48 107 187 217 285 242 184 249 285 289 102 311 332 16 78 71 109 91 307 307 331 350 66 99 122 139 144 137 120 123 127 131 135 135 128 114 122 130 138 143 147 141
58 118 120 95 79 310 10 81 100 73 56 72 6 95 96 74 267 269 245 348 289 258 227 243 247 275 257 249 233 187 170 205 188 202 159 139 130 125 125 120 117 118 123 124 126 129 131 131 132 131 134 136 135 140
78 66 66 87 74 33 291 82 31 33 26 76 89 136 153 185 252 253 285 191 226 281 259 233 224 191 136 114 123 105 88 149 135 130 131 118 123 126 118 116 112 119 119 121 121 128 124 121 118 127 131 135 139 136